Weather History for KFST - February, 2012

Change the Weather History Date:

Thursday, February 16, 2012

  Actual Average Record
Temperature  
Mean Temperature 48 °F -  
Max Temperature 61 °F 64 °F 90 °F (2011)
Min Temperature 35 °F 40 °F 28 °F (2003)
Degree Days  
Heating Degree Days 17    
Moisture  
Dew Point 31 °F    
Average Humidity 54    
Maximum Humidity 89    
Minimum Humidity 29    
Precipitation  
Precipitation 0.00 in - - ()
Sea Level Pressure  
Sea Level Pressure 30.05 in    
Wind  
Wind Speed 9 mph (East)    
Max Wind Speed 21 mph    
Max Gust Speed 23 mph    
Visibility 10 miles    
Events      
Averages and records for this station are not official NWS values.
T = Trace of Precipitation, MM = Missing Value Source: NWS Daily Summary

Daily Weather History Graph

Daily Weather History Graph

Search for Another Location

Airport or City:

Trip Planner

Search our weather history database for the weather conditions in past years. The results will help you decide how hot, cold, wet, or windy it might be!

Date:

Astronomy

Feb. 16, 2012 Rise Set
Actual Time 7:32 AM CST 6:39 PM CST
Civil Twilight 7:07 AM CST 7:04 PM CST
Nautical Twilight 6:39 AM CST 7:32 PM CST
Astronomical Twilight 6:10 AM CST 8:00 PM CST
Moon 3:16 AM CST (2/16) 1:46 PM CST (2/16)
Length of Visible Light 11h 57m
Length of Day
11h 07m
Waning Crescent, 28% of the Moon is Illuminated
Feb 16
Waning Crescent
Feb 21
New
Feb 29
First Quarter
Mar 8
Full
Mar 14
Last Quarter

Hourly Weather History & Observations

Time (CST) Temp. Windchill Dew Point Humidity Pressure Visibility Wind Dir Wind Speed Gust Speed Precip Events Conditions
12:53 AM 45.0 °F 41.2 °F 23.0 °F 42% 30.02 in 10.0 mi SSE 6.9 mph - N/A   Clear
1:53 AM 43.0 °F 37.7 °F 24.1 °F 47% 30.02 in 10.0 mi SSE 9.2 mph - N/A   Clear
2:53 AM 44.1 °F 39.5 °F 21.9 °F 42% 30.02 in 10.0 mi SSE 8.1 mph - N/A   Clear
4:53 AM 39.9 °F 36.7 °F 23.0 °F 51% 30.05 in 10.0 mi ENE 4.6 mph - N/A   Clear
5:53 AM 37.9 °F 32.7 °F 25.0 °F 60% 30.07 in 10.0 mi East 6.9 mph - N/A   Clear
6:53 AM 37.9 °F - 25.0 °F 60% 30.10 in 10.0 mi Calm Calm - N/A   Clear
7:53 AM 35.1 °F - 26.1 °F 70% 30.12 in 10.0 mi Calm Calm - N/A   Clear
8:53 AM 42.1 °F 40.2 °F 28.0 °F 58% 30.12 in 10.0 mi East 3.5 mph - N/A   Clear
9:53 AM 45.0 °F 41.8 °F 30.9 °F 58% 30.14 in 10.0 mi ENE 5.8 mph - N/A   Partly Cloudy
10:53 AM 50.0 °F - 33.1 °F 52% 30.13 in 10.0 mi ENE 9.2 mph - N/A   Mostly Cloudy
11:53 AM 53.1 °F - 33.1 °F 47% 30.13 in 10.0 mi East 10.4 mph - N/A   Unknown
12:53 PM 54.0 °F - 34.0 °F 47% 30.07 in 10.0 mi ENE 12.7 mph - N/A   Clear
1:53 PM 55.9 °F - 33.1 °F 42% 30.03 in 10.0 mi ENE 15.0 mph 23.0 mph N/A   Clear
2:53 PM 59.0 °F - 33.1 °F 38% 29.99 in 10.0 mi East 16.1 mph - N/A   Clear
3:53 PM 61.0 °F - 28.0 °F 29% 29.96 in 10.0 mi East 20.7 mph - N/A   Clear
4:53 PM 59.0 °F - 30.9 °F 35% 29.97 in 10.0 mi ESE 19.6 mph - N/A   Clear
5:53 PM 57.9 °F - 32.0 °F 37% 29.97 in 10.0 mi East 17.3 mph - N/A   Clear
6:53 PM 55.9 °F - 33.1 °F 42% 30.01 in 10.0 mi East 11.5 mph - N/A   Overcast
7:53 PM 50.0 °F - 37.0 °F 61% 30.01 in 10.0 mi NE 9.2 mph - N/A   Clear
8:53 PM 46.0 °F 41.0 °F 37.9 °F 73% 30.03 in 10.0 mi NE 10.4 mph - N/A   Clear
9:53 PM 45.0 °F 39.3 °F 37.9 °F 76% 30.04 in 10.0 mi ENE 11.5 mph - N/A   Overcast
10:53 PM 44.1 °F 37.7 °F 37.9 °F 79% 30.03 in 10.0 mi NE 12.7 mph - N/A   Overcast
11:53 PM 42.1 °F 37.1 °F 39.0 °F 89% 30.02 in 10.0 mi ENE 8.1 mph - N/A   Mostly Cloudy